ECMWFFLT1_850_spd_057.txt.gz
Wind_Speed
17 19 19 14 15 18 16 14 14 14 14 13 12 12 12 11 9 9 10 10 10 9 9 10 11 11 11 11 11 10 9 11 11 10 10 11 12 11 8 7 6 5 6 7 7 7 7 7 7 6 6 6 5 5 7 8 8 10 11 10 9 8 8
20 20 19 16 16 18 16 14 14 13 13 12 11 11 10 10 10 9 9 9 9 9 8 8 8 9 11 12 12 11 11 11 10 11 12 11 11 12 10 8 6 7 8 6 6 8 8 8 9 9 7 7 7 6 8 9 9 11 12 10 8 7 7
23 22 20 18 19 18 15 14 13 12 12 12 11 11 11 10 10 10 10 9 8 8 8 8 8 9 10 12 13 13 12 12 11 11 11 12 12 10 9 9 9 10 10 7 6 8 8 8 9 11 9 9 10 9 8 9 9 10 10 10 9 8 9
23 22 20 20 20 17 15 15 14 13 12 12 11 11 11 11 11 10 10 9 8 8 8 8 8 8 9 10 12 13 13 12 10 10 10 11 11 10 8 10 12 12 10 8 7 7 8 8 9 12 11 11 12 10 9 9 9 9 9 9 9 9 10
21 21 20 21 20 18 17 16 14 13 12 12 12 11 11 12 12 11 10 9 8 8 7 8 8 8 8 9 10 11 12 12 11 11 11 10 11 11 11 12 12 12 11 9 8 9 9 9 10 13 13 13 12 11 11 11 10 9 9 9 9 9 11
21 21 20 20 20 19 19 16 13 12 12 12 12 11 11 12 12 11 10 9 8 8 7 8 8 8 8 8 8 10 11 12 12 11 11 11 12 11 12 12 12 11 11 8 8 10 11 10 11 13 14 14 12 12 12 11 11 10 9 9 9 10 11
22 21 20 19 19 19 17 15 13 12 11 11 12 12 11 11 11 10 10 9 9 8 8 8 8 7 8 7 7 9 10 11 12 12 11 11 13 13 12 13 12 13 12 8 7 10 12 13 12 13 14 13 12 12 12 12 11 10 9 9 10 10 11
22 21 20 19 18 17 16 15 13 11 11 11 10 11 11 11 11 10 10 10 9 9 8 7 8 7 7 7 7 8 9 9 9 10 10 10 12 13 12 12 13 14 13 9 8 9 11 14 15 15 15 14 12 12 12 12 11 10 11 11 10 11 12
23 23 22 20 18 17 16 14 13 12 11 11 10 10 11 11 11 10 10 10 8 8 8 8 8 7 7 7 7 7 7 7 6 7 9 9 10 12 12 12 12 12 13 10 9 9 10 14 16 15 16 14 13 13 13 12 11 11 12 12 12 12 12
26 26 24 21 19 18 17 15 14 13 11 11 11 11 11 11 11 10 9 9 8 7 7 7 7 8 7 7 7 6 5 6 6 6 8 7 8 10 11 11 11 11 12 11 9 9 11 16 18 16 14 13 12 13 13 12 12 12 12 12 13 12 12
27 26 23 21 20 20 19 17 15 14 12 12 11 12 11 11 12 11 9 9 8 7 7 6 6 8 8 8 8 7 7 7 5 6 7 6 7 8 8 9 11 12 12 11 12 11 11 15 18 16 14 12 11 11 12 13 12 11 12 12 12 13 14
28 26 23 22 21 21 21 19 17 14 13 12 12 12 12 11 11 10 8 8 8 7 7 6 5 6 7 8 7 8 8 7 6 6 6 6 7 7 8 9 10 11 11 10 12 12 11 13 17 19 16 12 11 11 12 13 12 11 12 12 11 13 14
28 26 22 21 21 21 21 18 16 15 13 12 11 11 11 10 10 9 8 8 7 7 7 6 5 5 7 7 7 7 7 7 7 7 7 6 7 7 8 9 9 10 10 10 12 12 11 12 16 19 16 11 9 11 12 11 13 13 11 11 12 13 14
27 23 20 21 22 22 20 16 15 14 13 11 11 11 10 10 10 9 9 8 8 7 6 5 5 5 5 6 6 6 6 6 6 6 7 7 7 7 8 8 9 10 10 11 12 12 11 11 15 18 15 10 9 12 13 12 14 15 11 11 12 13 15
24 21 21 23 23 21 19 16 15 14 13 12 11 10 10 10 10 9 9 8 8 8 6 5 5 5 5 5 6 6 5 5 5 6 6 6 6 7 8 8 9 10 11 11 11 12 12 12 15 17 15 9 9 12 12 12 16 16 12 12 12 13 15
23 20 22 25 25 22 19 17 16 14 13 12 11 10 10 10 9 9 8 8 8 9 7 6 5 5 5 5 5 6 6 6 6 6 5 4 6 8 8 9 9 10 11 10 11 13 14 14 16 16 13 9 9 11 10 11 16 16 13 14 13 13 14
23 22 25 25 23 20 18 17 16 14 13 12 11 10 10 10 9 8 8 8 8 9 8 7 6 5 5 5 5 5 6 6 6 5 4 4 5 6 8 10 10 10 10 10 12 13 13 16 17 15 12 10 10 11 9 10 15 17 15 14 14 13 14
23 24 26 24 21 19 18 17 15 14 13 11 10 10 10 10 9 8 8 7 7 8 8 7 6 6 6 6 6 6 6 6 6 5 5 5 5 7 9 10 10 11 11 11 12 13 13 15 15 14 13 12 10 11 9 9 12 15 16 14 13 13 13
25 24 23 21 19 19 17 16 15 14 12 11 10 10 10 10 10 9 8 8 7 7 7 6 6 6 6 6 6 7 7 7 6 6 5 4 4 6 9 9 10 11 12 11 12 14 14 14 13 13 13 12 11 11 11 10 9 11 13 13 13 12 13
26 24 22 21 19 19 17 16 15 14 11 11 11 11 10 10 10 8 8 7 7 7 6 5 5 5 5 6 6 7 8 8 7 6 6 5 3 5 9 9 9 10 10 11 12 13 14 14 13 12 13 12 11 11 12 11 10 9 10 11 12 13 13
25 23 20 20 20 18 16 15 14 13 11 11 11 11 10 10 9 8 8 7 6 6 6 6 7 7 7 6 6 7 8 8 8 7 7 6 3 3 7 10 9 10 10 11 12 13 13 13 12 12 12 12 11 11 12 12 11 11 11 11 12 12 13
24 22 19 20 20 18 16 15 15 14 12 12 12 11 10 10 9 8 8 7 6 7 8 10 11 11 11 9 6 6 7 8 8 9 8 7 5 4 5 9 12 12 11 12 15 15 14 14 13 12 11 12 11 10 11 12 12 12 12 13 13 13 14
24 24 21 20 20 18 16 17 16 15 14 13 13 12 11 10 8 7 7 7 7 9 12 12 13 13 12 11 8 6 7 7 8 9 8 8 8 6 5 8 12 12 10 11 14 15 16 16 15 13 12 12 12 11 10 11 12 12 12 13 13 13 14
26 25 23 21 20 18 18 19 19 18 17 17 16 15 13 11 9 9 8 6 6 7 9 10 12 13 12 12 11 9 6 6 8 9 9 9 9 8 7 7 10 11 10 10 11 13 14 14 13 14 14 13 13 13 12 11 11 11 11 11 12 13 13
27 27 27 26 24 22 23 24 23 20 19 19 18 16 13 11 10 10 8 7 6 6 7 7 7 9 10 12 13 11 7 4 7 8 8 8 8 9 9 8 8 10 10 10 11 11 12 12 11 12 13 13 13 14 14 14 13 11 11 11 12 12 12
28 29 28 26 25 25 26 24 22 21 18 16 14 12 10 9 9 10 9 9 9 8 7 6 5 5 7 8 10 10 7 3 6 7 8 8 7 8 9 9 9 9 10 12 12 11 11 12 13 12 13 14 14 15 16 17 17 16 15 14 12 12 11
26 27 25 24 24 25 24 21 21 18 12 10 11 11 9 9 10 11 11 11 11 8 6 6 6 5 5 5 6 8 7 5 6 6 7 8 7 7 8 9 9 9 10 12 13 11 9 10 13 14 14 15 16 17 17 18 18 19 18 18 18 17 15
23 24 24 24 24 23 23 22 20 15 9 7 9 10 8 9 10 11 11 11 10 8 6 5 4 5 5 5 5 6 7 6 5 5 6 7 7 7 7 8 8 7 7 8 11 12 11 9 10 12 13 14 15 16 18 19 20 21 20 20 21 21 21
23 24 23 23 22 21 21 19 15 10 8 7 9 10 10 10 11 11 11 9 8 7 6 6 5 4 4 4 5 5 5 4 4 5 6 7 7 6 7 8 8 6 6 8 11 14 14 14 14 13 12 13 14 15 16 18 21 23 22 22 22 22 23
19 20 21 20 19 17 15 13 11 10 10 10 10 11 11 11 12 11 10 9 8 7 6 6 6 6 6 6 5 4 3 3 4 5 5 6 6 6 8 9 9 9 11 13 15 16 16 16 17 17 15 15 16 17 18 18 21 25 25 24 24 24 25
17 17 17 16 15 14 12 11 11 11 11 11 10 11 11 11 11 10 8 8 7 6 6 6 6 7 7 7 7 7 4 2 3 4 4 4 5 7 10 12 11 12 14 15 16 18 17 17 18 19 19 19 18 19 20 19 21 25 26 26 26 26 26
16 16 16 16 15 15 14 12 12 11 10 9 9 9 9 9 8 7 6 6 6 6 6 6 6 7 7 7 8 9 8 5 5 7 6 5 5 7 11 13 14 15 17 17 18 20 20 20 20 21 22 23 23 23 23 22 24 26 27 27 27 28 29
16 15 16 16 15 14 12 10 10 10 9 7 7 7 6 5 5 5 5 5 6 5 5 5 5 5 6 7 8 9 9 9 9 10 9 9 7 6 9 14 16 18 19 20 21 22 23 23 24 24 25 26 27 27 27 28 29 30 31 31 31 32 32
16 15 14 14 13 11 10 9 8 8 7 6 5 5 4 3 4 5 6 6 6 6 6 7 8 8 8 9 10 11 11 10 11 12 12 13 11 8 7 11 16 19 22 23 23 23 24 25 26 27 27 28 29 30 31 32 33 34 36 36 36 34 33
14 14 14 13 12 11 10 9 8 7 6 5 5 4 4 4 4 5 6 7 8 9 9 10 11 11 11 12 13 14 14 14 15 15 15 16 16 13 10 12 19 24 26 27 27 26 27 27 29 30 30 31 31 32 33 34 34 35 36 36 35 33 31
11 11 11 10 9 8 8 7 6 5 4 3 1 2 2 2 3 2 3 4 7 9 11 11 12 12 13 14 14 15 16 16 17 18 18 18 19 19 19 22 27 29 29 30 31 31 31 32 32 33 33 34 34 35 36 36 36 36 36 35 35 34 32
8 8 8 8 7 6 6 5 4 3 4 4 3 1 1 1 1 1 1 1 1 5 9 12 12 11 13 14 15 15 16 17 18 18 18 19 20 21 24 26 29 29 29 30 31 31 32 33 33 34 34 34 35 36 37 38 37 37 37 36 35 35 34

ECMWFFLT1_850_spd_060.txt.gz
Wind_Speed
19 16 14 14 14 14 15 14 13 13 13 14 13 13 12 11 10 11 11 11 10 9 8 9 10 9 8 9 9 8 9 9 8 8 8 9 10 11 10 7 5 4 8 12 11 13 16 16 14 12 12 12 11 10 10 11 10 9 9 9 9 9 7
19 15 13 14 14 13 13 13 13 14 14 13 12 12 10 9 9 9 10 10 10 8 8 9 9 9 10 10 10 9 9 9 9 9 8 8 9 11 10 7 7 7 8 11 11 10 12 16 16 15 15 14 12 12 13 14 13 11 11 11 10 10 7
18 16 15 15 15 13 12 13 14 13 13 13 11 9 8 8 8 7 8 8 8 7 7 7 7 10 11 11 11 10 9 8 9 9 9 8 9 10 10 8 8 10 10 11 12 11 11 13 15 17 17 16 16 15 12 13 14 13 12 10 7 8 6
18 16 17 17 16 14 13 14 13 12 12 12 11 10 9 9 9 8 9 9 8 7 7 7 7 9 10 11 11 10 9 8 8 8 9 9 10 10 10 9 8 10 10 10 11 13 12 13 16 17 17 17 18 16 12 11 14 13 11 11 9 9 8
20 18 18 18 16 14 13 13 12 11 11 11 11 10 10 10 10 10 10 10 9 8 9 8 8 8 8 9 9 8 8 8 8 8 8 9 9 11 12 10 9 10 10 9 10 12 12 14 17 17 18 18 16 14 13 13 13 11 11 12 10 11 10
22 21 20 19 17 15 13 13 12 12 12 12 11 10 11 12 11 10 10 10 9 9 8 8 8 8 8 8 7 6 7 7 8 9 9 8 9 11 12 10 10 12 11 9 9 10 11 14 16 18 18 16 16 17 16 14 13 12 11 10 10 11 10
26 24 23 21 18 16 15 14 14 13 12 11 10 10 12 12 11 10 10 9 9 9 8 7 8 8 8 7 7 7 7 7 8 10 9 9 8 9 10 10 11 13 12 11 9 10 12 13 16 18 18 16 17 18 16 14 14 13 12 10 11 12 10
29 26 24 21 18 18 17 15 14 13 11 10 10 11 12 12 12 11 10 10 10 9 8 7 7 7 7 7 6 6 6 6 7 9 10 9 9 10 10 10 11 12 13 12 10 10 12 14 15 16 19 19 18 16 15 16 15 14 14 13 12 12 10
29 27 24 21 19 19 17 16 15 13 12 11 12 13 12 12 12 11 10 10 10 9 8 7 7 7 6 6 6 5 6 6 6 8 9 9 10 11 12 11 11 12 12 11 11 11 14 15 14 15 18 19 18 17 17 17 16 15 15 15 14 14 12
27 26 24 21 20 19 19 18 16 13 12 13 13 11 11 12 11 10 9 10 8 8 8 7 7 7 6 6 5 4 4 5 6 6 7 7 8 10 12 12 11 12 12 12 12 12 14 16 17 18 19 16 15 18 19 18 17 17 17 16 16 15 12
27 25 23 21 20 21 21 20 17 14 13 14 13 11 12 12 12 11 9 8 8 8 8 7 6 7 7 6 5 4 4 4 5 6 6 5 6 8 10 10 11 12 13 13 13 12 13 15 18 20 20 17 15 16 18 18 18 17 17 17 16 15 12
27 25 24 22 22 22 21 19 18 17 16 14 12 12 13 13 13 12 9 8 10 8 7 7 6 6 7 7 6 6 5 5 5 5 6 5 5 6 7 7 10 11 11 12 13 12 12 14 19 20 21 20 15 13 16 18 19 16 17 17 16 15 13
27 27 26 24 24 23 21 19 20 19 17 15 12 12 12 11 12 12 8 7 8 7 6 6 5 4 6 7 6 6 6 6 5 6 7 5 4 6 6 6 8 10 9 10 11 12 12 16 19 19 20 19 13 11 15 17 19 18 16 17 16 14 13
28 27 27 26 25 24 21 20 21 19 16 14 12 12 12 10 11 11 7 6 6 6 6 6 5 4 3 5 6 5 5 6 5 4 5 5 5 5 5 6 7 9 10 9 10 12 12 17 20 19 19 17 12 14 15 15 18 19 16 16 15 13 14
29 28 28 27 25 23 20 20 19 18 15 13 12 12 12 11 13 12 10 9 7 6 5 6 5 4 2 3 5 5 3 4 5 5 5 5 5 5 6 6 7 9 11 9 10 12 13 16 19 20 19 15 12 16 17 15 18 20 18 16 15 15 16
30 29 29 28 25 23 20 19 19 17 15 13 12 12 12 12 12 11 10 10 8 7 5 5 6 6 4 4 5 5 3 4 6 8 4 2 3 4 5 6 8 9 9 9 10 13 14 15 18 21 21 14 11 15 17 16 18 20 20 18 16 17 17
30 30 29 28 26 23 21 19 18 16 15 13 13 12 12 11 11 10 10 9 8 9 6 5 6 6 4 4 4 4 5 5 7 6 1 1 2 3 3 6 8 7 8 11 12 12 14 14 17 22 19 10 8 14 15 15 17 19 20 19 18 17 17
29 30 30 28 26 24 22 20 17 15 15 14 13 12 11 11 11 10 10 8 7 9 6 4 5 6 4 6 6 4 4 5 5 4 3 4 3 3 4 6 8 7 8 11 11 11 14 14 15 20 16 8 8 12 12 15 20 18 14 16 19 18 16
28 30 31 29 28 27 23 21 18 16 15 13 12 11 11 11 10 9 10 8 7 8 6 4 5 5 3 5 8 6 4 5 5 4 3 3 3 3 5 6 8 9 10 11 9 11 13 13 16 19 15 10 11 11 12 15 19 15 10 13 17 18 17
30 31 32 30 29 27 23 21 20 17 15 13 11 11 11 11 11 10 9 9 8 8 9 8 8 7 4 4 6 7 6 6 5 3 2 1 2 3 4 7 9 8 10 10 9 11 12 14 18 16 12 13 11 11 14 15 15 14 13 14 15 15 16
29 30 31 29 27 25 23 20 19 16 14 13 12 12 12 12 12 10 9 10 10 10 11 11 10 10 8 6 6 6 7 8 7 5 4 2 1 1 2 6 8 6 8 10 11 11 13 15 16 12 14 15 10 10 15 15 14 13 13 16 16 15 15
26 26 26 26 24 23 21 19 18 15 12 12 13 12 12 12 11 10 10 10 11 12 11 9 9 9 9 8 8 7 6 7 7 5 5 3 1 1 2 5 6 6 7 9 12 13 14 15 13 12 16 15 9 9 13 15 16 13 10 13 15 14 14
25 24 25 25 24 22 21 19 17 15 13 14 14 13 12 11 11 11 11 11 10 9 9 9 9 9 9 9 9 7 6 6 6 5 5 4 2 2 3 4 4 6 7 9 13 14 15 16 15 14 17 17 13 10 11 13 16 13 10 11 13 13 14
25 23 24 25 22 20 21 21 19 18 17 17 16 15 13 13 13 12 12 9 6 6 8 9 9 10 11 10 8 7 6 6 5 5 5 5 3 2 4 4 3 3 6 8 13 15 15 16 17 15 16 18 16 14 13 13 14 13 12 13 15 15 16
26 24 24 24 22 22 23 23 22 21 20 19 20 19 16 15 13 12 10 6 3 4 6 7 9 11 12 11 8 8 7 6 5 5 5 5 4 3 5 5 3 2 5 7 11 14 15 16 17 15 14 15 15 15 15 15 14 14 14 15 16 16 16
27 26 26 25 25 26 25 24 23 22 20 19 20 19 17 14 12 11 9 5 3 3 3 4 6 8 11 12 11 9 8 7 5 4 4 4 4 4 5 6 5 4 4 5 8 10 11 13 14 14 13 13 13 14 15 16 17 16 16 16 16 16 14
28 27 26 25 26 27 27 25 23 21 19 19 20 18 14 10 9 10 9 6 4 3 3 3 4 5 6 9 11 11 8 6 6 5 5 7 7 6 6 6 4 4 5 6 6 7 7 8 9 10 11 12 14 15 15 16 18 18 18 18 17 17 16
27 25 25 26 27 28 28 26 23 21 20 20 17 12 8 7 7 8 8 6 5 5 4 4 5 5 5 6 8 10 8 5 6 7 6 7 9 9 9 8 6 6 7 8 8 8 8 7 7 7 8 10 11 13 14 16 17 18 20 20 19 20 20
24 24 26 28 27 26 25 23 22 22 20 16 11 8 8 9 8 8 7 6 6 6 6 6 5 5 5 5 7 8 7 4 4 4 3 3 5 6 7 7 7 8 8 7 8 9 10 10 10 9 8 8 9 10 12 14 15 17 18 20 20 21 22
21 22 23 24 24 22 21 21 22 21 16 10 8 7 8 8 8 8 8 7 7 8 7 7 6 5 5 6 6 7 5 3 3 4 3 3 3 4 5 6 8 8 8 8 9 9 11 11 12 12 13 12 12 12 12 13 15 17 18 20 22 23 24
17 16 16 18 19 19 18 17 18 16 11 8 8 8 7 6 5 6 7 8 8 8 7 7 7 6 6 6 6 5 5 4 3 4 4 2 2 4 5 6 9 10 10 11 12 12 12 13 13 14 15 15 16 15 14 15 17 19 20 22 23 24 26
15 14 14 13 13 13 13 12 12 12 11 9 9 8 7 6 6 6 8 8 7 6 6 5 5 6 6 6 6 6 6 6 5 5 5 4 2 2 4 5 8 10 12 13 14 14 15 15 15 16 16 17 18 19 19 20 21 22 23 24 25 26 28
17 16 15 15 15 14 12 12 12 12 11 9 9 8 8 7 7 7 8 8 6 4 4 4 4 5 5 5 6 6 7 7 6 6 7 5 1 3 4 6 8 10 13 15 16 17 17 17 18 19 20 20 22 23 24 24 25 26 27 28 29 30 30
18 18 17 17 16 15 13 12 12 12 10 9 9 8 6 6 7 7 6 5 4 4 4 4 4 4 5 5 6 6 6 8 8 8 9 8 5 4 6 9 11 14 16 17 18 18 19 20 20 20 21 22 23 25 26 27 27 28 29 30 31 32 33
18 16 15 15 14 13 12 11 10 10 10 9 8 6 5 5 5 3 3 3 3 3 4 5 5 6 7 7 8 8 7 8 9 10 11 11 9 9 12 14 15 17 19 19 20 21 21 22 23 23 24 25 26 27 29 30 30 31 32 32 33 33 33
17 16 15 14 14 13 11 10 11 11 10 8 7 6 5 5 5 5 2 2 2 2 3 4 5 7 8 8 9 9 9 9 10 11 12 13 13 14 17 18 18 20 22 23 24 25 25 26 26 26 27 28 28 29 30 31 31 31 31 32 33 34 34
17 18 17 16 15 15 13 12 12 12 11 9 8 8 8 8 7 6 5 5 7 7 6 5 5 5 7 7 8 9 9 9 9 10 11 12 14 15 16 17 18 19 21 22 23 24 25 25 25 25 25 25 25 26 26 27 28 28 28 27 26 26 26

ECMWFFLT1_850_spd_063.txt.gz
Wind_Speed
19 21 20 19 20 20 19 21 21 20 19 19 18 17 17 16 15 15 15 14 14 14 13 12 12 12 13 13 13 12 12 12 11 12 13 15 16 16 15 12 8 9 12 13 12 14 19 19 15 14 15 14 13 13 12 10 9 8 9 9 9 10 9
17 20 21 20 21 21 21 22 21 21 20 19 18 18 17 15 14 14 15 15 14 13 13 14 14 14 14 13 12 12 13 13 12 12 12 14 15 15 16 14 10 11 13 13 11 11 15 20 18 17 18 17 16 15 13 12 10 7 7 8 8 8 7
13 17 21 22 22 22 23 24 23 22 21 19 20 19 17 15 15 14 15 15 14 13 14 14 14 15 14 13 12 12 11 11 12 12 11 13 15 15 16 14 12 14 15 16 16 14 15 17 18 19 20 19 18 16 13 13 12 9 7 7 6 6 6
14 19 23 26 25 24 24 26 25 23 21 20 21 19 17 17 16 15 14 15 14 13 13 13 14 15 14 13 13 12 10 9 10 12 12 13 15 16 15 13 12 14 15 17 17 16 16 16 18 21 21 19 19 16 14 15 14 11 9 6 6 6 6
17 20 25 27 27 26 26 26 25 23 22 21 20 19 18 19 18 15 14 15 15 14 13 13 13 13 13 12 13 12 11 10 10 12 13 14 15 16 15 13 12 13 13 14 15 15 14 14 18 22 22 21 20 17 16 17 15 12 11 10 9 7 5
21 20 23 26 26 27 26 25 25 23 22 22 21 20 20 19 17 15 16 16 16 15 14 13 12 12 12 12 12 12 11 11 12 12 12 13 13 14 15 15 14 14 14 14 15 16 14 13 18 22 22 21 19 17 18 18 16 13 12 12 9 6 3
26 24 23 24 24 25 25 24 24 22 21 22 22 22 20 18 17 16 16 17 16 16 15 13 12 12 13 13 12 12 11 11 11 11 11 13 13 14 16 16 14 15 15 14 15 17 16 15 18 21 23 22 18 17 18 18 17 16 15 13 9 7 3
27 26 24 23 23 24 23 22 22 21 21 22 21 21 19 18 18 17 15 16 16 16 14 13 12 12 13 12 12 11 11 11 12 11 11 13 13 14 16 15 13 14 15 13 13 16 16 14 15 19 23 25 22 19 19 19 18 17 17 16 12 8 4
25 26 25 23 22 22 21 21 21 21 21 21 20 19 18 18 17 16 15 15 15 14 13 12 12 12 12 11 10 11 11 11 12 12 12 13 12 13 15 14 13 13 15 14 13 15 15 13 14 18 22 25 26 24 22 20 20 19 18 17 15 11 7
23 25 25 23 22 21 20 20 20 21 21 21 20 18 17 17 16 16 15 14 14 14 13 12 12 12 12 11 10 10 10 11 11 12 13 12 12 12 13 13 13 13 14 15 15 15 17 16 16 18 21 21 21 24 26 24 23 23 22 19 15 13 11
20 25 25 23 22 21 21 20 20 21 21 19 18 16 16 17 16 15 15 13 13 13 13 12 13 13 12 12 11 9 9 10 11 12 12 12 12 12 12 14 14 13 13 15 15 15 18 20 19 18 22 21 17 18 24 25 24 23 23 21 17 12 10
20 26 25 22 22 22 22 22 22 22 21 18 16 16 17 17 16 15 14 14 13 13 13 13 13 13 12 12 12 10 10 10 10 11 12 11 10 10 12 14 14 13 14 15 16 14 17 21 21 21 23 22 18 17 19 22 24 23 21 20 18 13 8
22 25 22 21 22 22 22 23 23 22 20 18 16 16 17 17 17 15 13 13 14 14 14 13 11 11 12 12 11 10 10 10 10 10 11 10 9 10 11 12 13 13 13 14 16 16 17 19 21 24 25 22 19 18 19 21 23 25 21 17 15 13 9
23 23 21 22 22 23 24 24 24 22 20 17 15 16 17 17 17 14 11 13 14 14 14 14 10 9 11 11 11 10 9 9 9 10 10 9 8 9 9 10 11 12 12 12 15 17 18 18 21 25 26 23 19 15 19 23 23 23 22 19 15 13 10
25 24 24 24 24 25 25 24 23 22 19 16 15 16 16 17 16 12 11 13 13 12 14 13 10 8 10 11 11 9 9 9 9 8 6 6 8 8 8 9 10 11 12 12 14 16 17 18 22 26 26 25 19 12 15 23 23 22 22 20 17 15 13
25 26 27 27 27 27 26 24 23 21 18 16 16 17 18 19 16 12 12 12 10 11 12 12 11 9 9 11 12 10 8 8 8 6 3 4 7 7 7 9 10 10 11 13 13 15 17 18 22 25 25 25 20 13 13 19 22 21 21 20 19 18 17
27 29 30 30 29 27 26 25 23 19 17 17 18 18 20 21 17 14 14 12 10 11 11 12 12 9 8 11 12 10 7 7 7 6 3 3 6 5 4 8 10 9 10 12 12 14 16 18 21 24 24 24 22 17 13 15 17 18 18 19 20 20 18
28 31 32 32 30 28 26 24 21 17 16 19 19 17 19 20 17 16 14 11 11 11 9 10 11 10 10 11 10 8 8 7 8 7 4 3 6 5 3 5 9 9 10 11 12 14 16 16 19 22 22 20 19 18 14 14 14 15 17 19 20 19 17
28 31 32 32 30 27 25 21 17 16 17 19 17 17 19 18 16 16 14 11 13 13 9 11 13 11 11 12 10 8 8 7 8 8 5 4 6 5 3 3 7 9 9 10 12 13 15 16 16 20 22 17 14 14 15 16 14 14 18 19 18 19 18
28 30 31 29 27 25 23 19 17 17 19 18 16 17 18 17 16 17 15 13 15 15 12 13 13 11 11 13 12 10 10 9 8 6 6 6 6 4 4 5 7 8 7 10 11 11 14 16 15 19 22 16 10 12 15 17 15 16 18 19 18 19 17
28 29 30 28 26 24 22 20 19 19 18 16 17 18 18 17 17 17 17 15 14 14 13 12 11 9 9 13 14 12 13 12 9 7 7 6 4 3 2 3 6 7 7 9 10 10 14 15 15 20 21 12 7 11 14 15 15 17 18 17 17 19 18
29 29 31 30 27 26 24 23 22 20 17 17 19 19 19 18 17 17 18 17 15 13 13 12 11 10 8 10 13 13 14 13 11 9 6 3 2 1 2 2 4 6 8 9 9 10 13 15 17 20 17 10 8 12 15 14 14 17 19 16 15 16 18
29 29 31 31 28 27 27 26 23 21 20 20 20 21 21 19 17 17 17 17 15 13 12 11 11 11 9 9 10 11 13 13 11 9 6 3 2 2 2 2 2 6 8 9 9 10 13 15 17 16 12 10 10 13 17 15 13 15 17 16 15 16 18
28 27 28 29 27 25 25 24 22 22 22 21 21 22 21 18 17 17 16 14 12 11 10 10 10 10 9 9 10 10 12 13 10 9 7 5 4 4 3 2 2 5 8 10 11 12 13 14 14 12 11 12 11 13 16 15 14 16 15 13 13 15 17
28 26 27 28 26 23 24 23 23 23 23 22 22 22 20 17 17 16 13 11 9 8 8 8 8 9 10 10 10 9 11 11 10 9 9 6 4 4 3 1 2 4 7 11 13 13 12 13 14 13 12 13 11 11 14 14 13 15 16 14 12 13 15
29 28 28 29 28 26 25 24 24 26 24 23 22 20 18 17 15 14 12 10 8 7 7 7 8 10 11 10 10 10 10 11 10 10 8 5 3 3 3 2 3 5 6 10 13 13 12 14 15 15 13 13 13 12 13 13 13 14 15 16 15 14 14
28 28 28 29 28 27 27 25 24 24 23 22 21 19 18 16 15 14 12 8 6 7 8 8 8 9 11 12 12 12 11 11 10 9 6 4 4 5 6 6 6 6 6 8 11 13 13 13 13 13 13 13 13 14 13 13 13 14 15 16 17 16 15
28 27 28 29 28 28 28 27 25 24 22 21 21 19 18 16 14 12 10 7 7 9 10 9 9 9 10 12 14 14 12 10 10 8 7 7 8 9 10 9 7 8 7 7 9 11 11 11 10 11 11 11 12 12 13 13 13 14 16 18 19 19 18
30 27 26 27 29 31 30 28 26 25 23 22 22 20 17 12 10 10 10 9 10 10 10 10 10 9 9 10 14 15 11 9 9 8 7 8 8 8 9 9 9 9 9 8 8 8 9 9 9 9 10 11 11 11 13 14 15 16 17 18 20 21 22
29 28 27 29 30 30 29 28 27 24 22 22 21 17 10 6 6 9 11 11 11 10 10 11 10 10 9 8 10 12 11 10 10 9 8 8 7 7 7 8 8 9 9 9 8 8 9 9 9 10 10 11 11 12 13 13 15 16 17 18 20 21 22
28 29 29 30 30 29 28 28 25 23 21 18 14 11 7 7 9 11 11 10 10 10 11 11 9 9 9 8 8 9 9 9 10 9 9 9 8 7 8 8 8 9 9 9 8 9 10 10 11 12 12 13 13 14 15 16 16 17 18 18 20 21 22
24 25 25 25 25 26 26 23 20 19 18 14 10 10 11 12 12 12 11 10 10 10 10 10 9 9 9 9 9 9 7 7 9 9 9 10 11 10 10 10 10 10 10 10 10 10 11 12 13 13 14 15 16 16 17 18 19 19 20 20 21 22 23
17 18 18 16 16 16 16 16 17 18 17 13 11 13 13 12 13 13 12 11 11 10 9 9 9 8 9 10 10 10 9 8 9 10 9 10 10 11 11 11 11 11 10 11 11 12 12 13 13 14 15 16 17 18 18 19 20 20 22 23 24 25 25
13 14 14 14 14 14 13 13 15 15 14 12 12 13 12 12 12 12 11 11 10 9 8 7 7 7 7 8 9 10 10 9 9 10 10 10 10 10 11 11 11 11 11 11 12 12 12 12 13 14 15 16 17 19 20 21 21 22 23 24 25 26 27
17 15 14 14 17 18 17 16 15 14 14 13 12 12 12 12 11 10 10 9 8 7 6 5 5 5 5 5 7 8 9 9 9 9 10 10 10 10 11 11 11 11 12 12 12 13 13 14 15 16 17 17 18 19 20 21 21 22 22 22 23 23 24
20 19 19 18 18 19 20 18 16 14 14 14 13 13 13 12 11 11 10 8 7 6 5 3 2 2 2 3 4 6 6 7 7 8 8 9 9 9 10 10 10 11 12 13 13 13 14 14 14 15 15 14 14 14 14 15 15 15 15 15 15 15 15
19 19 20 21 20 19 19 19 17 15 14 14 14 13 12 11 11 10 8 6 6 5 5 4 3 2 0 1 1 2 3 4 4 4 5 5 5 6 7 7 7 8 8 9 9 8 8 9 9 9 9 9 9 9 9 9 10 10 10 10 10 11 13

ECMWFFLT1_850_spd_069.txt.gz
Wind_Speed
32 32 31 30 29 29 29 28 27 26 24 24 24 24 24 24 24 25 24 23 22 22 22 22 21 19 18 17 16 15 15 15 15 14 13 14 16 17 16 15 14 11 7 7 11 11 11 14 15 14 14 13 12 11 11 9 8 7 6 7 6 6 6
32 30 28 28 28 28 29 28 27 26 25 25 24 25 25 24 24 24 23 23 23 22 21 20 20 19 18 17 16 16 16 16 14 14 14 14 15 16 17 17 15 13 10 9 11 13 12 13 17 17 16 16 14 12 11 10 8 7 7 7 7 7 7
31 29 28 28 28 28 29 29 28 27 27 27 26 26 26 25 25 24 23 23 23 22 20 19 20 19 19 17 16 15 16 16 15 15 15 13 14 16 17 17 16 15 13 12 13 15 14 13 15 17 19 18 16 15 13 11 9 8 9 8 7 8 7
30 29 29 29 28 27 28 28 28 28 29 28 27 26 26 25 25 24 23 23 23 23 21 20 20 20 19 17 16 16 16 17 16 15 15 14 14 16 17 18 17 16 14 12 12 14 16 15 14 16 19 18 16 15 14 12 10 9 9 9 8 7 7
30 30 31 30 28 26 26 27 27 28 28 28 27 27 26 25 25 24 23 23 24 24 23 21 21 21 19 17 17 17 17 17 16 16 16 16 16 16 17 17 17 15 14 12 11 13 15 14 13 14 17 18 16 15 14 13 12 11 9 8 7 6 5
31 31 31 31 29 26 25 25 26 26 27 27 26 27 27 25 24 24 23 24 25 25 24 22 22 22 20 18 17 17 16 17 17 17 17 16 16 16 16 17 17 16 15 12 11 13 14 13 13 14 16 18 17 16 16 15 14 12 10 9 8 6 5
32 33 33 31 29 27 25 24 24 25 26 28 27 27 27 24 24 24 24 25 25 25 24 22 23 23 21 18 17 17 16 17 17 17 17 16 15 15 15 17 17 16 15 13 12 13 14 14 13 14 16 18 18 17 17 16 16 14 11 10 9 8 6
31 32 33 32 29 27 24 24 25 25 25 28 28 28 26 24 23 24 25 25 24 24 24 23 24 23 21 19 18 18 17 17 16 16 16 15 15 15 15 16 16 16 15 14 13 13 13 13 12 12 15 19 20 18 17 17 17 15 12 10 10 9 7
32 30 29 29 27 25 23 23 24 24 24 25 27 28 26 22 22 24 25 23 22 23 24 24 23 23 21 20 20 19 18 17 17 16 15 15 16 15 15 15 16 16 15 15 14 14 13 13 12 11 14 18 20 20 19 19 18 17 14 12 11 10 8
28 28 26 24 24 23 23 22 22 23 24 24 26 27 25 22 21 23 23 21 21 23 24 23 23 22 21 21 20 19 19 18 18 17 16 16 16 15 15 15 16 16 15 15 14 14 13 14 13 13 13 16 19 18 18 19 19 18 17 15 13 10 9
22 23 24 25 25 24 23 23 22 22 23 23 24 24 23 22 22 23 22 21 22 24 24 23 23 21 20 20 20 19 19 19 18 18 17 17 16 16 16 16 16 16 16 15 14 13 13 13 14 14 13 15 19 19 18 16 15 16 17 16 14 11 9
26 23 23 24 24 24 24 23 22 21 21 20 21 21 20 21 23 23 22 20 22 25 24 23 21 20 20 19 19 19 19 18 18 17 18 18 17 17 17 16 16 16 16 15 14 14 14 13 13 14 14 15 18 20 19 16 12 12 14 15 13 10 9
30 26 24 23 23 22 23 23 21 20 20 20 20 20 21 22 23 24 22 21 24 25 23 22 21 19 19 18 18 19 18 17 17 17 18 18 18 17 17 16 15 15 16 15 15 16 16 13 13 14 15 16 18 20 20 18 14 11 11 12 12 10 9
29 30 29 27 24 23 22 21 20 21 20 20 21 21 22 24 25 25 24 23 24 24 22 21 21 19 19 19 18 18 18 17 18 17 17 18 18 17 16 15 14 15 16 16 16 17 17 15 15 16 16 16 19 20 20 19 15 12 10 11 12 11 10
28 31 31 27 24 23 23 20 19 21 22 22 23 22 24 26 26 25 24 24 24 22 21 21 21 20 20 20 19 18 18 18 18 17 16 17 17 17 16 15 15 16 16 16 16 16 17 16 17 17 18 17 19 20 20 19 16 13 11 11 12 12 11
25 26 26 24 21 22 22 21 21 23 24 24 23 23 25 27 26 25 24 25 24 22 22 21 21 21 21 20 20 19 19 18 17 16 15 16 16 16 16 16 15 16 16 16 16 16 16 16 17 18 19 19 20 20 20 20 17 15 13 12 12 12 11
20 20 22 21 19 20 21 22 23 25 26 24 23 23 26 26 25 26 26 25 24 24 23 22 21 21 20 20 20 19 18 17 16 15 14 14 14 14 14 14 14 14 15 16 16 16 17 17 18 20 21 21 21 20 20 21 18 14 14 14 13 13 12
20 21 22 21 19 21 22 23 25 28 27 25 23 24 27 27 26 28 27 24 24 24 24 22 21 20 20 20 19 18 17 17 15 14 13 13 13 13 12 11 11 12 13 14 15 16 18 18 19 21 21 20 20 19 21 22 19 17 17 17 17 16 15
22 23 24 23 22 24 26 26 27 30 28 25 25 27 29 28 28 29 26 23 24 24 22 21 20 20 20 19 18 17 17 16 15 14 13 12 12 11 10 9 9 10 12 12 13 15 17 17 18 20 19 17 18 20 22 22 20 20 20 19 19 19 18
21 23 22 22 24 27 28 28 29 31 28 27 28 28 28 28 28 28 26 25 25 24 22 20 19 19 20 19 18 17 16 16 16 14 12 11 11 10 9 6 6 8 10 11 11 13 15 16 18 19 19 17 17 19 23 24 22 21 21 20 19 17 17
20 22 21 21 22 25 27 28 30 31 29 30 29 27 28 28 28 28 27 27 26 23 22 20 19 19 20 20 18 16 16 17 16 14 12 10 9 9 8 6 6 6 7 8 9 11 13 16 16 17 18 16 16 18 23 26 24 20 18 17 16 15 16
18 19 20 20 20 22 25 29 31 30 30 31 29 28 29 29 28 29 28 27 26 24 22 20 18 19 20 20 18 15 15 15 15 13 12 10 9 9 8 7 8 8 8 8 9 11 14 14 13 14 15 13 13 16 21 27 24 17 14 14 15 16 18
16 16 17 18 20 23 25 28 30 29 28 30 30 31 32 32 30 30 29 27 25 23 21 19 18 18 18 18 17 15 14 14 14 13 11 10 10 9 8 8 9 9 10 10 10 10 12 12 11 12 11 9 11 14 19 25 23 15 13 14 16 18 19
15 16 16 17 21 25 24 27 30 29 29 30 32 35 36 34 32 30 27 25 23 22 20 18 17 17 16 16 15 15 14 13 13 12 11 11 11 8 7 7 8 9 10 10 9 9 10 10 10 10 9 9 11 12 16 20 19 15 15 17 18 19 19
15 16 16 17 25 28 26 27 30 31 33 34 35 36 35 34 32 28 25 23 21 20 19 18 17 16 16 15 14 14 14 14 14 13 12 12 10 8 6 5 6 8 9 8 8 8 9 11 10 9 9 11 13 13 14 14 15 15 15 17 20 21 19
16 17 16 19 27 29 29 30 31 32 33 34 36 36 33 32 30 25 23 22 19 18 19 19 18 16 15 15 15 15 15 15 16 15 14 12 11 9 7 4 4 6 7 7 7 8 9 10 10 10 11 13 14 13 12 12 13 13 13 14 16 17 17
15 17 17 19 27 32 32 33 33 33 32 32 34 35 33 30 27 22 21 20 19 18 19 20 18 16 15 15 16 16 16 16 17 16 15 13 12 10 8 6 4 5 7 7 8 9 9 8 11 13 13 13 14 13 11 10 10 11 11 11 11 12 13
13 17 17 19 27 33 34 34 34 34 34 34 33 33 31 27 24 21 19 19 19 19 19 19 18 17 16 15 16 17 17 17 16 16 16 14 13 12 11 8 5 5 7 9 9 9 9 9 12 14 15 15 15 14 11 10 9 10 10 10 10 11 12
14 17 18 20 27 32 33 34 34 34 34 33 31 31 30 26 23 22 21 20 20 20 19 18 17 17 16 16 17 17 17 17 16 16 16 16 15 15 13 10 7 6 6 9 11 9 9 11 12 13 14 14 13 12 11 11 11 12 12 12 12 12 13
15 15 14 17 24 29 29 30 31 30 29 28 27 28 28 26 24 23 22 20 19 18 18 18 18 17 16 16 17 17 17 16 16 17 17 17 16 16 15 12 10 8 6 8 10 10 10 12 12 12 12 12 11 11 11 11 12 13 14 15 14 14 14
18 19 17 18 22 25 25 26 27 26 26 27 27 27 26 26 24 22 20 18 17 17 18 18 18 17 17 16 16 16 16 16 16 17 18 18 17 17 16 14 12 10 8 8 9 10 9 9 10 10 10 9 9 10 10 10 11 12 14 14 14 14 15
17 21 22 23 25 24 21 22 25 26 27 27 26 26 26 26 25 22 20 18 16 15 17 17 15 15 15 15 14 14 14 15 16 17 18 18 18 17 17 15 13 12 10 10 10 10 9 8 9 10 10 9 9 9 9 10 10 11 11 12 13 14 15
12 18 22 24 24 25 24 24 23 24 25 25 26 27 26 25 26 24 21 19 17 16 16 15 14 13 12 12 13 13 13 14 15 16 17 17 17 17 16 16 15 14 13 12 12 11 11 11 11 11 11 11 11 11 11 11 12 12 13 13 15 16 17
7 10 16 22 25 26 27 26 25 26 27 27 27 28 27 25 25 24 21 19 18 17 16 16 15 15 13 12 12 13 13 13 13 15 15 16 16 16 16 16 16 15 15 15 14 14 13 13 13 13 13 13 14 14 14 15 15 15 16 17 18 18 19
7 7 8 14 20 24 24 24 25 26 27 25 25 26 26 25 25 24 23 21 20 19 18 17 17 17 16 14 13 13 13 13 13 14 14 15 16 16 15 15 15 15 15 15 14 14 14 13 13 13 14 14 14 15 15 16 17 18 18 19 19 19 19
10 9 8 8 11 16 19 21 21 22 22 22 23 23 24 23 23 24 23 22 21 20 19 18 17 17 16 15 15 14 13 14 14 14 14 14 14 14 14 14 13 13 13 13 12 12 12 13 13 13 13 13 14 14 15 15 16 16 16 16 16 17 17
13 12 11 9 7 9 13 16 18 18 18 19 20 21 22 22 22 23 22 21 20 19 18 17 17 17 16 15 15 15 14 14 14 14 14 13 13 13 12 12 11 11 11 11 12 12 13 13 13 12 12 12 12 12 12 12 12 12 12 13 13 13 14

ECMWFFLT1_850_spd_072.txt.gz
Wind_Speed
25 24 23 22 23 24 24 24 25 25 25 24 24 23 22 22 23 24 24 24 25 24 23 23 22 21 21 21 21 21 18 18 19 18 17 17 17 17 17 16 14 11 8 4 3 6 7 9 12 12 12 13 13 12 11 10 9 8 6 6 5 4 4
26 25 24 22 22 23 23 24 25 25 25 24 24 23 23 22 23 23 24 25 25 25 24 23 23 22 22 22 22 21 19 19 19 18 17 16 13 12 14 15 15 14 11 7 4 6 7 8 11 12 14 15 14 13 12 11 10 8 8 7 6 5 5
27 27 26 24 23 22 22 24 25 25 25 24 24 23 23 22 22 22 24 24 25 25 24 23 23 23 23 23 22 21 20 19 18 18 17 15 12 11 12 14 15 14 13 10 8 7 9 10 9 11 15 16 15 15 14 12 10 10 9 8 7 7 6
28 28 27 26 25 23 23 24 25 25 24 23 23 22 22 21 21 22 22 24 25 25 25 24 24 23 22 22 22 22 20 19 18 18 18 15 13 12 12 14 15 13 12 10 8 6 8 11 9 9 14 17 15 15 14 12 11 10 9 8 7 7 7
28 28 28 27 26 25 25 25 25 24 23 23 24 23 23 22 23 23 23 24 25 26 26 25 24 23 22 22 23 22 20 19 18 18 18 17 15 13 13 13 14 13 12 10 8 7 7 9 9 8 11 16 15 15 14 13 13 11 9 9 8 8 9
28 27 27 27 27 25 24 24 25 25 24 24 24 24 24 24 24 24 25 26 26 25 25 25 25 24 23 24 24 23 21 19 18 18 18 17 15 14 13 13 14 13 12 11 10 8 7 9 10 10 10 14 16 16 15 14 13 11 11 11 10 10 9
26 26 25 26 27 24 22 22 24 25 26 25 24 24 24 25 26 25 25 25 25 24 24 26 26 26 25 25 24 23 21 19 18 18 18 17 15 14 14 14 14 13 12 12 11 9 8 8 11 11 11 12 15 15 15 15 14 12 12 11 12 12 10
22 23 24 26 26 23 21 21 21 23 26 25 24 24 23 25 27 26 25 24 23 23 24 26 28 28 26 24 23 22 20 18 18 18 18 17 16 15 14 14 13 13 13 13 12 10 9 8 9 10 10 12 15 15 15 15 15 14 12 11 12 13 11
23 21 23 26 26 23 20 19 18 19 22 22 20 22 23 25 25 24 23 22 22 22 23 26 28 27 25 23 23 23 20 18 18 18 18 17 16 15 14 13 13 14 13 13 12 11 10 9 9 9 10 11 14 16 17 17 16 15 15 14 13 13 12
25 24 24 24 24 23 21 19 20 20 19 17 16 19 22 22 22 22 22 22 22 22 24 25 26 25 24 24 25 24 21 19 18 18 17 17 16 16 15 14 13 13 14 13 13 12 11 11 10 10 10 9 12 15 17 17 16 14 15 16 14 13 12
23 24 25 22 19 20 20 19 19 19 18 18 17 19 20 20 20 21 22 22 22 23 24 25 26 26 24 24 25 24 22 20 18 18 18 17 16 16 15 15 14 14 14 14 13 12 12 12 11 11 10 9 10 12 14 14 12 10 11 14 14 13 12
24 24 23 21 19 19 19 18 18 19 21 21 21 20 21 21 20 20 21 22 22 23 24 25 26 26 24 24 25 24 21 20 19 19 19 18 17 16 15 15 16 15 15 14 14 13 12 12 12 11 11 10 10 10 12 13 12 8 8 9 11 13 11
23 23 23 23 22 21 18 16 17 19 22 23 22 21 20 20 20 19 20 21 22 23 23 23 24 24 23 24 25 24 22 21 20 19 20 19 18 17 16 16 16 15 15 14 14 14 13 12 11 11 12 12 10 10 11 14 13 11 8 6 7 12 11
17 20 23 24 23 22 19 17 17 19 22 23 22 20 19 19 19 18 19 20 21 22 22 23 23 24 23 24 24 24 23 22 21 20 20 20 19 18 17 16 16 15 14 14 15 14 13 13 12 12 12 12 11 11 11 13 13 13 11 7 5 12 12
12 16 21 22 22 22 20 19 19 21 22 23 22 20 20 20 20 19 20 21 21 21 21 23 24 23 23 25 24 23 22 21 20 21 20 19 18 18 17 16 15 15 15 15 15 15 14 14 14 14 12 12 12 12 12 13 13 13 12 7 5 12 13
12 13 16 17 18 19 19 20 22 22 22 22 22 21 22 21 21 21 21 20 20 20 21 23 24 23 23 24 23 21 19 19 19 19 19 18 17 17 17 16 15 15 15 15 16 16 15 15 15 15 14 13 14 14 13 14 14 14 12 8 7 11 13
15 15 16 15 15 17 19 21 22 22 22 23 22 22 24 24 22 22 21 20 20 21 22 23 23 23 24 24 21 19 18 17 18 17 17 16 16 16 17 16 16 16 16 16 16 16 16 16 16 16 15 15 15 15 15 15 15 15 14 12 10 10 11
18 18 18 17 16 16 17 19 20 21 23 24 23 24 26 26 25 23 22 21 21 22 23 23 22 23 24 23 20 18 18 17 16 16 15 15 15 16 15 15 15 15 15 16 17 17 17 17 17 16 16 15 15 15 15 16 16 16 15 13 12 11 11
18 19 19 19 19 18 18 19 20 21 23 24 24 25 28 28 25 23 22 22 22 23 23 23 22 22 22 21 18 18 18 17 15 15 15 15 14 14 13 12 12 13 14 14 15 16 17 17 17 16 15 15 14 14 16 16 17 19 18 16 14 13 12
17 18 18 19 20 20 20 22 23 23 24 24 24 26 29 29 25 23 23 24 24 24 23 23 23 22 20 19 18 18 18 17 16 15 15 14 14 13 12 11 11 11 12 13 14 15 16 17 17 16 15 14 13 15 16 16 17 20 20 17 16 15 13
16 17 16 17 19 22 23 23 24 25 26 26 26 27 30 29 25 24 25 26 26 25 23 24 24 21 19 19 19 19 19 18 16 16 15 14 13 13 12 11 10 9 10 11 13 13 14 15 15 15 14 13 13 15 15 16 18 20 20 18 18 16 14
17 16 15 14 15 19 22 23 24 26 28 29 28 29 30 28 26 27 28 28 27 25 24 23 22 20 19 21 21 19 18 17 17 16 15 14 14 14 13 11 9 8 9 11 13 13 13 13 13 13 14 13 13 15 16 16 17 20 21 20 19 17 16
16 16 14 13 13 15 18 20 21 24 26 27 29 31 31 29 28 29 29 28 27 25 24 22 21 20 20 21 20 18 17 17 18 17 16 15 14 14 13 11 9 9 9 12 13 12 13 13 11 12 13 13 13 13 15 17 18 20 22 20 17 16 16
17 14 13 12 12 13 14 15 16 19 22 25 30 32 30 29 30 30 29 28 27 25 23 22 21 20 20 20 19 18 17 18 18 17 16 15 14 13 13 11 10 10 10 12 13 13 13 12 10 10 12 12 12 13 15 16 17 19 22 22 17 14 14
20 16 12 11 11 13 15 15 15 19 24 28 31 32 30 31 31 31 29 28 27 25 23 22 20 19 19 20 19 18 17 17 18 18 16 15 14 13 12 9 9 10 10 12 13 13 12 11 10 10 12 12 12 13 14 14 13 16 20 23 19 14 14
22 19 16 13 13 14 16 18 20 24 28 31 31 31 31 32 32 30 28 27 26 24 22 21 20 19 19 19 19 18 17 16 17 18 17 15 15 13 10 8 7 8 10 11 12 12 12 11 10 10 11 11 12 12 12 11 11 13 16 19 18 16 14
19 18 17 16 15 16 17 21 26 29 31 32 31 30 31 31 30 29 27 26 25 23 22 22 21 19 18 18 18 17 16 16 17 18 17 16 15 13 10 8 6 6 8 10 10 10 10 9 9 9 11 11 11 11 11 10 9 10 12 13 13 13 11
17 15 14 15 16 16 17 22 28 30 31 30 27 26 29 31 30 29 27 26 26 25 24 23 21 19 17 16 16 16 16 16 17 18 18 17 15 13 11 9 6 4 6 7 7 7 7 7 8 10 12 12 11 12 11 9 8 8 8 8 8 8 7
16 13 11 12 15 16 17 22 25 26 26 27 26 26 28 29 30 30 30 29 29 29 26 24 22 20 17 16 15 16 16 16 17 19 19 17 16 14 12 10 6 4 4 6 7 7 7 7 8 10 12 12 12 12 11 8 7 6 6 5 5 5 5
15 11 8 9 12 13 16 20 21 20 21 24 27 28 27 28 29 29 30 30 29 27 26 25 23 20 17 15 14 14 15 16 17 18 18 18 16 15 13 11 8 6 5 6 8 9 9 9 9 11 12 12 12 12 10 9 8 7 6 6 6 6 6
13 11 9 7 7 8 12 14 15 15 17 21 23 23 25 28 28 28 29 29 27 25 25 24 22 19 17 15 13 13 14 15 15 16 17 17 17 15 14 13 11 9 7 7 8 10 10 10 12 12 11 10 10 9 8 9 9 9 9 8 8 8 8
12 10 9 7 5 3 4 9 13 13 14 18 22 23 23 24 23 22 23 24 24 23 22 21 19 18 16 14 13 12 13 13 14 15 16 17 17 16 15 14 13 11 9 8 9 9 9 9 10 10 8 7 8 8 8 8 8 7 7 7 7 8 9
12 9 7 6 8 10 9 8 10 14 15 17 20 20 18 17 17 17 17 17 17 17 17 17 17 16 15 14 13 11 11 11 12 14 15 16 16 16 16 15 13 12 10 10 10 10 9 8 8 8 7 6 6 7 8 8 7 6 7 8 8 9 10
15 12 9 6 3 8 10 7 6 9 12 13 15 17 17 15 16 15 14 13 13 14 14 14 14 14 13 13 12 10 9 9 10 13 15 17 17 17 16 15 14 13 12 11 11 10 9 8 8 8 8 7 6 6 7 7 7 7 7 8 8 9 9
15 14 12 9 6 1 5 9 9 8 9 11 12 14 14 13 12 12 12 13 13 13 14 14 13 13 13 11 11 11 10 10 11 13 15 17 18 17 16 15 14 13 13 12 11 10 9 9 8 8 7 6 5 5 5 5 6 6 7 7 7 8 8
14 14 12 10 8 7 4 1 5 7 8 9 9 10 10 11 13 13 14 15 15 16 16 16 15 15 14 13 12 12 11 12 13 13 14 16 17 16 15 14 13 12 11 10 9 9 8 7 6 5 5 5 5 4 4 5 5 5 5 6 6 6 7
15 14 13 11 11 12 11 6 4 5 4 5 6 8 9 12 14 15 15 16 17 18 18 18 18 17 16 15 14 14 13 13 14 13 13 14 15 15 13 13 12 11 10 8 8 7 7 6 6 6 5 5 4 4 4 4 4 4 5 5 6 6 7

ECMWFFLT1_850_spd_075.txt.gz
Wind_Speed
17 18 18 17 17 18 20 22 23 22 22 21 20 20 23 24 24 24 24 25 26 26 24 24 24 23 21 21 21 21 21 20 18 17 16 16 16 16 16 17 17 14 10 7 7 8 8 9 10 11 11 13 12 11 12 12 11 11 9 7 6 5 6
17 16 16 16 17 18 19 19 19 19 19 20 19 21 25 24 23 24 25 26 27 26 25 24 25 25 23 22 22 21 20 19 19 18 17 17 17 15 15 17 18 16 14 10 8 8 8 8 9 11 11 12 12 12 12 13 12 11 10 9 8 7 7
16 16 16 17 18 20 20 20 19 17 18 19 19 22 24 23 22 23 24 25 26 27 26 25 26 26 23 23 21 19 18 18 19 19 18 18 17 15 14 16 16 16 15 14 11 10 9 8 8 9 11 13 13 13 14 14 13 12 11 11 10 9 9
15 16 16 16 17 19 20 22 18 15 15 16 17 18 21 22 22 23 24 23 24 27 27 26 27 26 24 23 20 18 19 19 19 20 19 19 18 16 14 14 15 15 15 13 10 9 9 8 8 8 10 11 12 12 14 15 13 12 13 12 11 10 10
16 17 17 17 18 19 20 21 18 15 14 14 14 14 17 21 22 23 24 22 23 27 27 26 26 25 23 22 20 20 21 20 20 20 20 20 19 17 16 15 15 16 15 13 10 8 8 7 8 9 8 10 11 11 13 15 14 13 14 14 13 13 12
15 16 17 18 18 19 19 20 18 15 15 14 13 13 14 17 21 23 24 23 24 26 27 26 26 25 23 23 22 21 20 21 21 20 20 19 19 19 17 16 16 16 16 14 12 10 8 7 8 9 8 9 11 10 11 15 16 14 15 15 15 14 14
18 18 19 18 17 18 20 19 17 14 14 13 12 12 13 15 18 22 23 24 25 26 26 25 24 25 24 24 22 19 18 20 20 19 19 19 19 19 18 17 17 17 16 15 13 12 10 8 8 10 10 8 9 10 10 12 14 15 15 16 16 15 14
20 21 21 19 16 17 18 17 15 13 12 11 10 10 12 14 16 19 20 22 24 25 26 24 23 24 24 23 22 19 18 20 19 19 20 20 21 20 19 18 18 17 16 15 14 13 11 9 8 10 10 9 9 10 10 9 12 15 15 15 16 15 14
16 18 18 18 17 17 16 15 14 13 12 10 9 9 10 12 14 16 17 19 21 22 25 25 24 24 23 22 22 21 21 20 20 21 21 22 22 21 20 19 18 17 17 16 15 15 13 11 10 10 10 10 10 10 11 10 11 14 14 13 15 15 15
15 16 16 16 17 17 16 15 15 15 14 11 9 9 10 10 11 13 15 16 17 20 23 24 24 24 22 22 23 23 22 21 21 21 21 22 22 21 20 19 18 17 17 17 17 16 14 12 12 12 11 10 10 11 12 13 12 14 14 13 14 14 15
15 16 17 16 15 16 16 15 14 12 12 12 12 12 12 11 11 12 15 15 16 18 22 23 24 24 23 23 24 23 22 22 22 22 22 23 23 23 22 20 18 18 17 17 18 17 15 14 13 13 12 11 11 11 12 12 13 13 14 14 15 15 15
14 15 17 16 14 14 14 15 14 11 10 12 15 14 13 12 12 14 16 16 17 18 20 23 24 24 23 23 23 23 23 23 22 22 22 23 23 23 22 20 19 18 17 18 18 17 16 15 13 13 13 13 13 13 12 12 11 11 11 12 14 16 15
14 14 14 14 13 14 15 16 18 17 14 14 15 14 13 13 13 15 16 17 17 18 20 23 24 23 22 22 23 23 23 22 22 21 22 23 23 22 21 21 20 19 18 18 18 18 17 15 14 14 14 15 15 13 13 13 12 10 10 9 10 15 16
13 13 13 11 12 14 15 16 17 17 16 16 15 14 14 13 13 15 16 17 17 18 20 22 23 23 22 23 23 23 22 22 21 22 24 25 24 22 20 20 20 19 19 19 19 19 18 16 15 15 16 16 16 15 13 14 13 12 12 10 8 13 18
13 14 13 12 12 13 15 15 16 17 18 18 17 17 17 16 16 16 16 18 18 19 21 22 23 24 23 23 22 23 23 22 22 23 25 25 23 21 20 20 19 19 19 19 19 19 18 17 16 16 16 16 16 16 14 15 15 13 14 12 8 11 18
15 15 15 14 13 13 14 14 16 18 20 20 20 21 20 19 19 18 17 18 19 20 22 23 24 24 23 22 22 22 23 22 22 23 25 24 22 21 21 20 19 19 19 19 19 18 19 18 17 17 17 15 15 16 14 14 15 14 14 13 9 10 18
17 16 15 16 16 16 15 15 16 18 20 21 22 23 23 22 21 19 19 19 20 21 22 23 24 23 23 23 22 22 22 21 21 23 23 23 23 23 22 21 19 19 19 18 18 19 20 19 18 18 18 17 17 16 15 14 16 16 15 14 11 10 15
19 18 17 17 19 20 19 19 18 18 19 21 22 24 24 23 22 20 20 21 21 22 22 23 24 23 23 23 21 21 21 21 22 22 23 24 24 23 23 21 19 19 18 18 18 18 20 19 18 17 18 19 19 17 16 15 16 17 16 15 14 12 14
19 20 20 19 20 21 22 22 21 20 20 20 22 23 24 23 22 21 21 22 22 22 23 23 23 23 23 22 21 21 20 20 21 22 24 25 24 22 22 20 19 19 19 18 17 18 19 19 18 17 18 19 19 19 19 17 17 19 18 17 16 15 13
16 18 21 21 21 22 22 23 23 23 22 22 22 22 23 23 23 22 22 22 23 23 23 23 22 22 22 21 21 20 19 19 21 22 23 24 24 22 21 19 19 19 18 17 17 17 17 18 18 18 18 18 18 19 19 18 19 21 20 19 18 17 15
16 16 17 19 20 21 23 24 24 23 23 23 23 22 22 23 24 23 22 23 24 24 24 23 23 23 22 21 20 19 19 20 21 21 22 23 24 22 20 19 18 18 17 16 16 16 16 16 16 16 17 17 18 19 18 18 19 20 18 19 20 19 17
18 16 15 17 18 18 20 22 24 23 23 24 24 24 24 24 24 23 22 24 26 26 25 24 24 23 22 21 20 19 19 20 20 20 21 21 21 20 18 18 17 17 17 16 16 16 16 16 15 15 16 17 17 18 17 17 18 18 16 19 23 22 20
18 14 13 14 15 15 15 17 20 22 22 23 25 26 25 25 26 25 23 25 27 26 25 25 23 22 22 21 20 18 19 20 20 20 19 18 18 18 18 18 17 16 16 15 15 16 16 16 15 15 15 16 16 16 17 17 17 17 18 21 23 23 22
17 13 11 11 11 12 13 14 15 17 19 20 22 25 25 26 27 27 25 26 27 27 26 25 23 22 22 21 19 18 18 18 19 20 19 17 16 17 17 18 17 15 13 12 13 14 14 15 16 16 15 16 16 16 17 17 17 17 18 20 23 24 24
19 17 15 14 13 12 11 12 13 14 16 16 18 20 21 23 25 26 26 27 27 27 26 26 24 22 21 20 19 18 18 17 18 19 19 17 16 17 17 17 15 12 11 11 11 12 13 14 15 15 14 15 16 17 17 18 17 18 18 20 23 24 23
24 22 20 18 17 16 14 14 15 16 17 16 16 16 17 20 22 25 26 27 27 26 26 25 24 23 21 19 18 17 17 17 18 18 19 19 17 17 16 14 12 11 11 11 11 12 13 13 13 13 13 14 15 16 17 18 17 17 18 19 20 21 21
27 25 24 21 18 17 18 18 19 20 20 19 18 19 20 22 25 28 27 26 26 25 26 26 25 23 20 18 17 17 18 18 18 18 19 19 17 16 14 12 9 9 9 10 11 12 13 13 12 12 13 13 13 14 15 15 15 16 17 16 16 19 21
28 26 25 23 19 17 17 19 20 22 21 20 20 21 23 25 28 30 28 27 27 26 27 27 24 22 20 18 18 19 19 19 18 19 19 18 17 15 13 11 9 7 7 8 10 11 12 12 11 11 12 13 13 13 13 12 11 11 12 13 13 16 20
28 26 26 24 21 18 17 17 18 19 19 18 17 18 22 25 28 29 28 27 27 28 28 27 24 21 20 19 19 20 20 18 18 19 20 19 17 16 13 11 9 7 6 7 9 10 10 10 10 11 12 13 12 11 11 11 10 9 9 10 10 12 16
27 24 24 25 24 22 21 19 17 15 14 12 11 11 15 19 21 24 25 25 25 27 28 27 25 22 19 18 19 19 19 18 18 20 20 19 18 17 14 12 10 8 5 6 8 9 9 10 10 10 10 11 11 12 12 12 11 9 9 9 9 11 12
27 24 23 23 22 20 20 18 16 13 10 5 2 4 6 8 10 14 19 21 22 25 26 24 22 20 18 16 17 17 17 18 18 19 19 19 18 17 15 14 12 9 7 6 8 9 9 9 8 8 9 12 14 14 13 13 11 11 10 8 8 8 8
28 26 23 21 19 18 17 17 15 12 10 6 4 5 2 4 5 7 12 15 16 20 23 24 22 21 20 18 16 15 15 16 17 18 19 20 19 18 16 15 14 12 9 8 9 9 9 9 9 10 11 13 13 11 10 9 9 8 8 8 7 7 7
27 26 24 20 17 15 14 14 13 13 12 10 9 8 6 5 7 9 10 11 11 13 18 21 22 22 20 18 15 13 14 15 16 17 18 18 18 17 17 16 16 15 12 11 11 10 10 9 10 10 11 10 9 8 9 9 8 8 7 7 6 6 6
25 25 23 20 17 16 14 12 12 12 12 10 9 10 11 10 11 12 11 9 9 9 11 14 16 17 15 14 12 11 12 13 13 14 15 15 15 16 17 18 18 17 15 13 13 13 12 11 11 11 10 8 7 6 8 8 8 7 7 6 6 6 6
25 23 22 20 18 18 16 13 11 10 9 9 9 10 10 9 9 9 7 4 4 6 7 7 9 11 11 11 10 10 9 10 10 10 12 14 15 17 18 18 18 18 17 16 16 15 14 13 13 11 10 9 8 7 8 8 8 8 8 7 8 8 8
24 22 20 19 18 18 17 15 14 11 8 7 7 9 9 8 7 6 5 5 5 6 7 8 9 10 11 10 10 9 8 8 8 9 10 13 16 18 18 19 19 19 19 18 17 16 15 14 13 12 11 9 9 8 8 9 9 9 9 9 9 9 8
21 20 19 18 18 18 18 17 16 15 12 9 7 8 9 9 8 7 6 5 4 5 7 9 11 10 10 10 10 10 8 8 8 9 10 12 16 18 18 19 19 18 17 17 16 15 14 13 12 12 11 11 10 10 10 10 10 10 9 9 8 8 7

ECMWFFLT1_850_spd_078.txt.gz
Wind_Speed
8 8 8 10 11 12 12 11 10 10 9 9 12 14 15 18 20 21 22 20 19 22 23 23 23 23 24 25 24 24 23 23 23 21 18 17 18 18 17 16 17 16 12 10 10 8 8 9 12 13 12 12 13 13 13 13 11 11 11 10 9 9 9
8 8 9 9 9 10 11 11 11 12 11 11 11 13 15 17 19 21 22 21 20 20 21 23 24 23 23 25 25 25 24 22 22 22 19 18 17 16 17 17 16 16 13 11 12 9 8 8 11 14 14 14 15 14 13 14 13 13 12 10 10 11 11
9 9 10 10 10 11 10 9 10 11 13 12 10 11 13 15 17 19 22 23 22 21 19 21 23 24 24 24 24 25 23 22 22 21 21 20 18 16 15 15 15 15 13 13 13 11 9 9 10 12 14 14 15 15 15 16 15 14 13 10 10 10 11
10 10 10 11 11 11 11 10 9 9 12 13 11 9 12 14 16 17 19 21 23 22 21 21 22 24 25 24 24 24 23 23 23 21 22 22 18 16 15 14 14 14 14 13 12 11 10 10 9 11 13 13 14 14 15 15 13 13 13 11 11 10 11
11 11 11 11 11 12 11 11 10 9 10 13 12 11 12 13 14 16 17 18 20 21 22 21 20 21 23 24 24 24 23 23 22 22 23 22 17 16 15 14 14 14 14 13 12 11 11 10 10 11 12 13 13 13 13 14 13 13 12 11 11 12 12
10 12 12 12 11 12 12 12 11 10 9 10 12 12 13 13 14 15 17 17 18 19 20 21 20 20 22 23 24 25 24 23 23 23 23 21 18 17 15 14 15 15 14 15 14 12 11 11 11 11 11 12 13 12 12 14 14 13 12 12 12 13 13
9 11 12 13 12 13 14 14 13 11 10 11 12 13 14 16 16 16 17 18 18 19 19 19 20 20 22 24 25 25 24 23 23 22 22 21 20 19 17 16 17 16 16 17 15 13 12 12 12 12 11 12 12 12 12 13 14 14 14 13 13 13 13
9 10 11 12 12 12 13 13 13 12 12 12 13 14 15 17 18 17 18 19 20 21 21 20 20 20 23 24 25 25 24 23 22 22 22 21 21 21 20 20 19 17 17 17 16 15 15 13 12 13 13 13 13 12 11 12 14 15 15 14 14 14 15
8 9 10 12 12 13 13 14 14 13 12 13 14 14 15 17 17 18 19 19 20 21 21 21 21 22 23 24 25 24 23 23 21 21 23 22 23 22 22 23 21 19 19 19 18 17 16 14 13 13 14 14 14 14 13 12 13 15 15 15 15 16 16
7 8 10 11 12 14 15 16 15 14 14 15 14 15 16 17 17 17 18 18 19 19 19 21 21 23 23 23 24 23 23 23 22 23 24 24 23 22 22 24 23 22 21 20 19 18 17 16 14 14 15 14 14 14 14 14 14 15 16 16 15 15 16
6 8 9 10 11 13 14 16 17 16 16 15 14 15 17 17 17 16 16 16 16 16 18 20 21 22 23 23 24 24 24 23 24 25 25 23 23 22 21 23 23 23 22 20 20 20 19 17 15 15 15 15 14 13 13 13 14 14 15 16 14 14 15
7 7 8 10 10 11 13 16 17 16 16 14 13 14 16 17 16 16 16 16 15 16 18 20 21 22 23 24 24 24 24 23 24 25 25 24 23 22 22 23 24 24 23 21 21 20 19 18 17 16 16 16 15 14 12 12 13 14 14 16 14 13 15
10 9 9 10 10 10 13 16 17 16 17 15 13 13 14 15 15 16 17 17 16 16 18 20 21 22 23 24 25 25 25 24 25 25 25 25 24 23 23 24 25 25 23 21 21 20 19 19 18 17 16 16 15 14 13 11 12 13 12 13 14 14 15
12 11 11 12 12 12 13 16 17 17 17 16 15 14 14 14 16 17 19 19 18 17 19 21 22 23 24 24 25 26 26 25 25 25 25 26 25 25 24 24 26 26 24 23 21 19 19 20 19 18 17 16 16 15 14 13 12 12 13 13 13 13 15
14 12 12 13 14 14 14 15 15 16 17 17 16 16 15 15 16 17 19 19 18 17 19 22 24 24 24 25 26 26 26 25 25 25 27 27 26 25 24 23 26 28 26 24 21 20 20 20 19 19 18 17 16 16 16 15 13 13 15 15 13 13 14
15 15 14 13 13 14 15 16 15 16 17 17 17 18 17 17 17 17 18 18 16 16 17 21 24 25 25 25 26 26 27 26 25 26 27 26 25 25 24 24 26 27 26 24 22 22 21 20 19 19 18 17 16 16 16 16 15 14 14 15 15 13 14
14 15 15 15 14 13 14 16 18 18 18 18 18 19 19 19 18 19 20 19 17 17 17 19 22 24 26 27 27 27 27 26 26 26 26 26 25 25 25 25 25 26 26 24 24 22 20 20 20 19 18 18 16 16 16 16 16 15 14 15 15 13 13
13 13 14 15 14 13 12 14 17 18 19 20 20 18 18 19 19 20 21 20 18 19 19 20 21 22 25 26 27 27 26 26 26 25 25 25 26 25 24 24 25 25 24 24 23 21 20 21 21 20 19 18 16 16 16 16 16 15 14 14 14 13 12
12 12 12 13 14 13 11 11 13 15 16 17 18 18 18 18 20 21 21 21 21 21 21 22 22 22 23 24 26 26 26 25 23 22 24 25 25 25 24 24 25 24 23 23 23 22 21 23 23 22 20 19 17 17 16 17 17 16 16 15 14 14 13
13 11 12 12 12 12 11 11 12 14 14 14 15 16 18 19 21 22 21 21 22 22 21 22 23 23 24 24 25 26 26 24 22 22 24 24 24 24 24 24 25 25 25 25 24 23 23 25 25 24 21 20 18 17 17 18 18 17 19 19 16 15 14
15 12 11 11 10 10 10 10 11 13 14 14 14 15 16 18 20 21 21 20 21 22 22 22 23 23 23 23 24 25 24 23 23 24 23 23 23 23 23 24 24 25 25 25 25 26 27 26 26 24 22 20 19 18 18 18 17 17 20 21 19 15 15
17 15 12 11 10 9 7 8 9 11 12 14 14 15 16 17 19 21 21 21 21 22 23 24 24 24 24 24 24 25 24 23 23 23 23 23 23 22 23 24 24 24 25 24 24 25 24 22 22 22 20 19 19 20 19 18 17 17 20 22 21 19 17
19 16 14 12 11 9 8 8 10 11 12 13 14 14 15 17 19 21 23 23 23 23 24 25 26 26 26 25 24 24 25 24 23 23 23 23 23 22 23 24 25 25 24 22 22 22 20 18 19 20 20 19 20 20 19 19 19 19 19 20 21 22 22
22 20 17 15 13 12 11 10 10 12 14 13 14 15 16 17 19 22 24 24 25 25 24 26 28 28 27 26 24 24 25 25 23 23 23 22 22 22 23 24 25 24 22 20 20 20 19 19 20 19 19 20 21 21 21 21 21 20 18 18 19 22 23
23 23 22 20 18 17 16 15 13 12 13 14 14 14 16 17 19 21 23 24 26 27 25 25 27 29 29 27 26 24 24 24 24 23 22 22 21 21 22 23 24 21 19 19 19 18 17 18 19 19 19 19 20 21 21 22 21 19 17 17 18 21 22
22 23 23 23 22 21 21 20 18 14 12 13 14 14 14 15 17 19 20 22 24 26 26 25 26 28 28 28 26 24 23 24 24 23 22 22 21 21 21 22 22 20 19 18 17 16 16 17 17 17 18 18 18 20 20 21 20 19 20 19 16 18 22
23 23 23 23 24 24 25 24 22 18 13 11 11 12 12 12 14 16 17 19 22 25 26 26 25 25 26 26 26 25 24 23 22 23 23 21 21 21 21 22 21 20 19 17 17 16 16 15 15 15 16 17 18 19 20 20 20 20 22 19 13 15 19
23 23 22 22 23 25 27 27 26 24 21 17 14 13 12 11 12 14 16 19 22 24 25 25 25 26 26 26 25 24 24 23 24 24 23 22 22 22 21 20 19 18 16 15 15 16 15 15 15 15 16 17 17 17 18 19 19 19 20 18 15 15 18
23 23 22 22 23 25 27 28 28 26 24 22 20 17 14 12 12 13 15 18 21 23 24 23 23 25 27 26 24 24 25 26 26 25 24 24 24 22 21 20 18 15 13 13 13 14 14 15 15 16 16 16 15 15 16 16 17 18 18 17 15 15 16
21 22 23 24 23 24 25 26 26 24 23 21 20 19 16 14 12 13 14 16 18 20 23 23 22 27 29 27 26 25 25 26 25 25 26 25 23 22 21 19 17 14 12 11 11 13 13 14 15 16 16 16 16 16 16 16 16 16 15 14 12 11 13
18 18 20 22 23 22 23 23 22 21 19 19 18 16 15 13 12 12 11 11 12 14 18 22 24 28 30 29 28 26 25 25 24 24 26 25 23 22 21 19 16 14 11 9 10 12 13 14 14 15 15 15 15 16 16 17 17 17 15 14 12 11 11
17 16 18 21 22 22 21 20 19 17 15 15 15 14 13 11 9 8 8 7 5 4 8 14 19 23 25 25 23 23 24 24 23 22 24 24 23 23 22 20 17 14 11 10 10 12 13 14 14 13 13 13 14 15 17 17 17 17 15 14 13 12 12
17 17 17 19 21 22 22 20 19 16 14 14 14 15 15 14 13 12 11 10 9 6 2 5 10 15 18 18 17 18 21 20 20 21 23 22 24 25 25 22 19 16 14 12 12 13 14 13 12 10 11 12 13 15 18 17 16 15 15 14 13 13 12
19 18 17 16 17 19 21 21 20 18 16 14 13 14 16 15 16 15 14 15 15 11 8 7 9 11 12 11 11 13 14 10 11 18 23 24 26 28 27 24 21 18 16 14 13 13 13 13 13 12 13 13 13 13 14 15 14 14 14 13 14 14 13
20 21 19 16 15 15 17 19 20 19 17 15 14 15 16 16 17 17 16 15 15 11 9 9 10 9 8 7 5 4 5 5 8 17 23 23 22 21 19 19 19 18 17 15 14 14 13 14 15 15 14 13 12 11 12 13 14 15 15 15 15 15 14
21 21 21 18 16 16 15 15 17 19 19 17 16 16 16 15 15 14 14 14 13 10 7 7 8 7 7 7 5 3 2 3 5 8 11 14 15 15 14 16 17 17 18 17 16 15 15 15 15 15 15 13 13 13 14 15 15 14 14 13 13 12 12
21 21 20 18 18 18 17 15 16 18 20 20 19 18 18 17 15 12 9 9 10 8 5 4 4 5 5 6 6 4 2 1 2 3 3 6 9 12 14 16 17 18 18 18 17 17 16 15 15 16 16 15 15 15 15 15 14 12 11 11 10 10 9

ECMWFFLT1_850_spd_084.txt.gz
Wind_Speed
4 6 8 8 7 6 6 7 8 8 10 10 9 9 11 13 14 15 17 19 20 20 21 21 21 21 22 22 21 21 19 20 21 22 22 22 22 22 21 23 24 23 20 16 14 13 12 13 15 19 20 19 19 18 16 16 17 18 17 15 15 14 14
5 7 9 9 9 10 9 8 8 8 9 10 9 9 11 13 16 16 17 19 20 20 21 21 21 21 22 23 23 22 22 22 22 21 23 25 25 24 23 23 24 25 23 20 17 15 15 15 13 16 19 19 20 20 18 16 17 19 18 17 16 15 14
5 7 9 10 10 11 11 10 10 10 10 10 10 10 12 14 16 17 18 18 18 19 21 21 20 21 23 24 24 23 22 23 23 23 24 25 27 27 26 24 24 24 25 25 23 19 17 17 16 16 18 21 22 22 20 18 19 19 18 18 17 16 15
6 6 7 10 11 12 12 12 13 13 12 11 12 12 14 14 15 17 18 18 17 17 19 20 21 22 23 24 25 24 24 25 25 24 25 26 28 28 28 27 26 24 25 26 26 24 22 21 20 19 20 22 24 23 21 20 20 19 19 18 18 17 15
8 7 7 8 10 12 12 13 14 15 15 13 13 14 14 13 14 15 16 17 17 18 18 19 20 21 22 24 25 25 26 26 27 27 27 28 29 29 29 29 28 26 25 24 23 24 25 24 23 21 21 22 25 24 21 21 21 20 20 19 18 18 16
9 8 9 8 9 11 11 13 13 15 17 15 15 16 14 14 14 13 14 15 17 19 19 19 20 21 22 23 25 26 26 27 27 28 29 29 29 30 30 29 29 27 25 24 22 22 23 23 23 22 21 23 26 24 20 21 21 21 20 20 20 19 17
7 7 7 7 8 10 11 13 14 15 16 15 15 16 15 16 15 14 15 17 18 18 19 20 21 21 21 22 24 26 27 26 26 28 29 29 29 29 29 29 29 28 25 24 23 22 23 23 22 22 19 20 22 21 20 20 21 23 22 22 21 20 19
10 9 8 6 6 9 11 12 14 15 15 15 16 16 16 17 18 18 18 19 19 19 19 20 20 21 21 22 24 26 27 26 26 27 28 28 29 29 29 29 29 28 26 25 24 23 24 22 21 21 18 17 18 19 20 20 21 23 23 23 21 22 23
12 12 11 9 7 7 9 11 13 15 16 16 16 17 17 18 20 21 21 20 18 19 21 21 20 20 21 22 23 25 27 26 26 27 27 27 29 29 30 30 29 29 27 25 25 24 24 23 22 21 20 19 19 19 21 22 22 23 22 23 24 24 25
12 12 13 12 11 8 7 8 11 14 15 16 16 17 18 18 20 23 24 22 19 19 21 23 23 21 20 22 23 25 27 26 26 27 27 27 28 29 30 30 29 29 27 26 26 25 25 25 24 22 21 22 21 20 21 21 23 24 23 25 26 25 25
14 13 12 13 13 11 7 6 10 13 15 16 16 18 19 19 19 22 24 23 21 21 21 23 23 22 21 22 24 25 26 26 27 27 27 27 27 27 29 29 29 29 28 27 27 26 25 26 26 25 23 22 21 20 20 20 21 22 23 25 26 27 26
16 16 15 15 14 12 9 7 9 12 14 15 16 17 19 19 19 20 21 22 22 22 22 22 22 22 21 22 23 24 26 27 27 26 27 28 28 27 27 28 29 28 28 28 28 26 26 27 28 26 24 22 22 22 20 20 20 20 22 26 27 27 28
17 18 18 17 16 14 12 10 10 12 13 14 15 17 18 19 19 19 20 20 21 22 23 22 21 21 21 22 23 24 25 27 28 28 27 28 29 28 28 28 28 27 28 29 28 27 27 28 28 26 24 25 26 25 22 21 22 20 21 25 28 28 27
17 18 18 18 18 17 17 15 12 12 13 13 14 16 17 18 18 19 19 19 19 20 21 21 20 21 21 23 23 23 24 26 28 29 28 28 29 30 29 28 28 27 28 28 28 28 28 28 29 27 26 28 29 27 25 24 22 20 21 25 28 28 27
17 18 18 18 19 19 20 19 14 12 13 13 12 14 17 18 18 19 18 18 18 19 21 21 21 21 22 24 24 24 24 26 28 29 29 29 30 30 29 28 28 28 27 27 28 29 29 29 29 29 28 29 29 28 28 27 23 21 21 24 27 28 27
18 19 19 20 20 19 19 20 18 15 14 12 11 12 16 18 18 19 20 20 19 20 22 22 22 23 24 25 26 26 26 27 29 30 30 30 30 30 29 28 28 27 26 27 27 28 28 28 29 30 30 29 29 29 29 29 27 25 23 23 27 28 27
20 21 22 22 22 21 19 19 19 18 17 15 13 13 14 15 16 17 19 20 20 21 22 23 24 25 27 27 27 28 28 28 29 30 29 29 28 27 28 29 29 28 26 26 27 28 28 29 29 30 30 30 31 31 30 28 29 29 26 24 26 27 28
21 22 23 24 24 23 22 20 20 19 18 17 16 15 15 16 15 15 16 19 20 22 22 23 24 26 28 28 27 28 28 28 29 30 29 29 28 27 28 29 29 28 27 27 28 29 29 29 30 29 30 31 32 33 33 31 30 30 28 25 26 29 30
22 22 22 22 23 22 22 23 21 20 19 18 17 17 18 18 18 17 16 17 17 19 20 22 24 25 26 27 27 28 29 29 30 30 30 30 29 28 28 28 29 30 29 27 28 30 29 29 30 30 30 32 33 33 35 34 30 28 27 26 28 31 30
21 21 20 20 20 20 21 22 21 21 20 19 19 20 20 21 21 20 20 19 17 16 18 21 22 22 24 24 25 26 29 30 29 29 31 31 29 29 28 28 31 32 29 27 27 30 31 30 31 30 30 32 33 34 34 33 29 27 25 25 28 31 31
20 20 18 19 19 20 20 21 22 22 21 20 20 21 21 22 23 23 24 24 21 19 18 18 18 19 21 22 21 23 25 28 28 28 30 29 28 29 28 30 32 30 28 28 27 28 30 30 31 30 29 31 33 34 35 31 28 26 26 27 26 25 29
19 19 18 18 19 19 19 21 23 24 23 22 21 20 20 20 22 23 24 25 25 24 22 21 20 20 20 22 23 24 23 24 25 27 28 28 28 29 30 31 31 28 27 28 28 27 27 29 31 29 28 30 32 34 34 30 26 24 24 28 27 21 21
19 20 20 20 19 19 19 20 22 23 24 24 22 20 20 19 18 19 20 21 23 23 23 26 28 26 22 20 22 24 25 25 24 26 28 29 30 30 30 31 30 28 27 28 27 27 27 29 31 28 27 30 31 32 32 30 27 24 22 26 28 25 22
20 20 21 21 20 20 20 19 20 22 24 26 25 23 22 21 20 19 18 18 18 18 20 25 28 29 27 24 23 24 26 27 26 26 27 29 30 30 29 31 32 29 27 27 27 27 28 31 30 27 28 30 31 33 32 29 25 23 22 24 26 28 28
21 21 22 22 23 23 21 20 19 21 23 25 27 27 26 25 24 22 19 18 18 16 17 21 24 27 29 29 29 29 28 28 28 27 26 27 30 30 29 31 33 30 28 27 26 25 28 30 28 26 27 29 31 32 30 25 22 21 23 24 24 26 29
21 22 22 23 24 25 25 24 22 22 23 24 26 27 28 28 28 27 25 22 21 20 19 20 21 23 26 27 29 31 31 30 29 28 26 27 29 30 29 29 30 28 27 27 25 26 28 28 28 27 26 28 30 30 27 23 22 21 21 23 24 25 27
21 22 23 23 24 24 26 27 25 24 23 24 25 26 26 27 28 28 28 28 27 26 25 25 25 24 22 23 26 30 32 31 30 29 28 28 28 29 29 30 29 27 27 28 26 26 28 29 28 28 27 28 28 27 26 24 23 22 20 20 23 24 25
22 22 23 24 24 23 24 26 27 26 24 24 24 24 24 26 27 27 27 28 28 28 28 29 30 30 27 22 21 25 30 31 30 28 28 28 29 28 28 29 29 27 27 28 25 24 28 30 30 28 28 28 25 24 25 24 22 22 20 19 21 24 26
22 22 23 24 24 24 24 25 26 27 25 24 23 23 23 25 27 27 26 26 26 28 29 30 31 33 33 27 20 18 22 26 27 27 28 27 27 27 27 28 29 27 27 26 24 23 27 31 30 29 29 28 25 24 24 23 21 20 19 19 19 22 24
22 23 24 24 25 25 25 25 26 26 26 25 25 24 24 24 26 27 26 26 27 28 29 30 30 32 35 32 24 18 15 16 19 24 27 25 24 26 29 30 29 27 26 25 23 23 26 28 28 28 27 26 25 24 23 22 21 19 19 18 17 18 20
22 23 23 24 25 25 24 25 25 25 24 24 25 25 25 25 26 27 27 26 27 27 29 30 30 31 33 32 27 22 18 13 13 18 23 24 23 25 29 30 26 24 25 25 23 23 24 24 24 25 25 24 25 25 23 21 20 19 18 18 17 17 19
23 24 24 24 25 25 23 23 23 23 22 22 23 24 25 26 28 29 27 26 27 27 28 29 29 29 30 30 27 23 18 13 10 10 13 18 21 23 28 29 25 24 25 23 21 22 22 21 21 22 23 23 23 22 20 17 16 17 17 17 17 17 19
24 24 24 24 25 25 24 23 23 23 22 22 22 22 23 25 28 30 29 28 27 28 28 28 28 27 26 26 26 24 21 17 13 10 7 9 11 15 24 27 25 25 23 18 17 19 19 18 18 18 19 19 17 16 16 15 13 14 16 17 17 18 19
24 24 24 24 25 27 27 24 24 24 23 23 22 22 22 23 25 28 29 29 29 29 28 28 28 27 26 25 24 23 24 22 18 15 11 6 1 10 16 19 21 23 22 16 14 15 17 17 16 16 16 15 14 14 16 17 15 15 16 18 19 20 20
24 24 24 24 24 27 30 29 26 25 25 25 24 24 23 22 23 25 27 29 29 29 28 28 27 27 26 25 24 23 23 22 19 16 11 6 4 11 18 18 18 19 19 16 14 15 17 17 14 12 11 11 11 12 15 17 16 16 17 18 20 21 21
22 24 24 24 23 25 30 32 31 28 28 28 28 27 26 24 23 25 27 28 28 27 27 28 28 28 27 26 25 23 22 21 19 17 14 9 7 12 17 17 16 14 14 16 15 16 17 15 11 9 8 8 10 11 13 15 16 16 16 17 18 19 18
19 20 22 23 23 24 28 32 33 30 30 31 31 32 30 28 26 26 27 29 28 26 26 26 27 29 28 27 25 23 22 20 19 17 16 13 11 14 14 12 11 11 13 15 15 15 14 12 10 9 8 8 9 10 12 14 15 15 16 16 17 17 16

ECMWFFLT1_850_spd_087.txt.gz
Wind_Speed
2 3 4 5 5 6 7 8 8 8 9 10 10 10 11 12 13 12 13 14 15 17 20 23 23 23 23 23 23 24 25 26 26 27 27 28 30 31 30 31 30 29 26 23 20 18 16 17 19 22 25 25 25 24 23 21 21 20 19 19 20 18 17
2 3 4 5 6 6 7 9 10 11 11 11 11 11 11 12 13 13 14 14 15 16 19 22 24 24 24 25 25 25 26 26 26 27 27 28 30 31 31 31 31 30 28 26 22 20 19 18 17 20 23 25 26 26 24 22 22 21 21 21 21 19 18
5 3 1 3 5 6 8 9 11 12 12 12 13 13 13 13 13 14 16 16 16 16 18 21 23 24 25 26 27 26 26 26 26 26 28 28 29 30 31 31 31 31 30 29 27 25 23 21 19 19 20 23 26 26 25 24 23 22 22 23 23 21 20
7 5 3 1 2 5 7 9 11 13 13 13 13 14 15 15 15 15 16 18 18 18 18 19 21 22 23 25 26 27 27 27 26 27 29 29 29 30 31 31 30 30 29 29 29 29 28 26 23 21 20 20 22 23 23 23 22 22 22 24 25 24 22
7 7 7 4 2 4 6 7 8 11 12 12 13 14 15 15 16 16 17 18 18 17 18 17 18 20 21 23 25 26 26 27 27 27 29 29 30 30 31 32 32 31 30 28 27 27 29 28 26 23 21 19 19 21 21 21 22 23 23 24 26 25 23
5 7 8 7 6 5 5 6 8 9 11 11 11 13 14 14 16 17 17 18 17 16 17 17 18 19 21 23 24 25 25 27 28 29 29 28 29 31 32 33 32 32 32 30 27 26 26 27 28 26 23 21 21 20 20 21 23 24 24 25 26 26 25
1 1 3 5 7 7 6 6 8 9 11 11 11 12 13 13 15 17 18 18 18 18 18 19 19 19 20 22 23 24 24 26 28 30 30 28 28 31 33 33 33 33 33 32 31 29 27 27 29 29 27 26 24 22 21 22 23 25 26 27 27 27 26
4 3 1 3 5 7 7 7 6 7 10 11 12 12 13 13 13 15 17 18 19 20 21 21 21 20 19 21 22 23 24 25 27 29 29 29 29 30 32 33 33 33 34 34 33 32 30 29 28 28 28 27 25 23 22 22 23 26 26 26 28 28 27
6 4 3 1 1 4 6 7 6 5 6 9 12 13 13 13 14 15 16 17 17 19 20 22 23 20 18 20 21 21 23 24 25 27 28 29 29 29 31 32 32 33 34 34 34 34 32 30 28 28 27 27 26 25 22 22 25 26 25 25 28 29 29
9 8 8 7 4 1 5 7 8 7 5 6 9 12 12 14 15 15 17 17 17 17 18 20 21 20 18 19 20 21 23 24 25 25 25 26 27 27 28 29 29 31 32 33 34 34 32 31 29 28 28 27 26 26 25 24 27 27 26 28 30 30 30
10 11 12 11 8 4 2 5 8 8 7 7 8 10 11 12 14 15 16 17 17 17 17 17 19 19 18 18 19 21 22 24 25 25 24 25 26 25 26 27 28 29 29 31 32 32 31 30 30 29 29 27 26 27 28 27 28 27 27 30 33 31 30
15 15 15 15 14 11 8 6 6 7 8 8 9 9 10 11 13 15 16 17 17 17 17 16 17 18 18 18 19 19 21 23 24 25 25 25 25 25 26 26 29 29 28 29 31 31 31 30 30 29 29 29 28 27 28 28 28 27 27 31 33 32 31
18 19 19 19 18 17 14 11 9 7 7 7 7 8 9 10 11 13 15 17 17 17 17 17 16 16 17 18 18 19 21 22 23 23 24 25 25 26 26 26 27 28 28 29 30 31 31 30 29 29 29 29 29 28 28 28 29 27 26 29 31 31 33
20 21 22 22 21 21 19 16 14 12 10 8 7 6 7 9 10 11 12 14 15 15 16 16 16 17 17 17 18 19 20 21 22 23 23 24 25 25 26 25 26 27 27 28 28 30 30 30 29 30 30 31 31 31 30 29 29 27 25 26 29 31 34
21 21 21 21 21 22 22 20 17 16 13 12 9 7 7 9 10 10 11 12 13 13 14 15 16 17 18 19 20 20 21 22 23 23 24 25 25 25 25 24 24 25 27 27 28 29 30 30 30 31 32 33 33 34 33 29 28 27 25 26 29 32 34
20 19 19 19 20 20 21 21 20 19 17 16 15 11 8 10 12 12 12 12 13 13 14 14 14 15 16 17 19 21 22 23 24 25 26 26 26 26 25 25 26 25 25 27 28 29 30 30 31 33 34 34 34 35 35 33 31 30 28 28 29 31 34
18 18 17 18 18 18 19 20 20 20 19 18 18 16 14 13 13 14 14 14 14 14 15 15 14 14 15 16 18 19 20 23 25 25 27 27 27 26 26 27 27 24 23 25 27 29 31 31 31 33 34 35 36 36 36 35 33 32 31 30 30 32 34
18 17 17 17 17 17 18 19 20 20 20 19 19 18 17 16 15 15 14 15 16 16 17 19 18 16 16 17 19 20 21 23 25 25 27 28 28 27 28 27 27 26 24 24 26 28 31 32 31 33 35 36 37 37 37 35 33 31 30 30 31 32 34
19 18 17 17 17 16 17 18 19 19 20 20 19 18 18 18 17 16 15 15 16 16 18 22 23 21 19 19 19 20 21 22 23 24 26 28 28 28 29 29 28 28 27 25 25 27 30 31 31 32 34 35 37 38 37 36 36 33 30 29 30 31 32
20 21 20 19 18 17 17 17 17 18 19 19 19 19 19 19 18 17 16 15 15 15 17 22 24 25 24 23 23 22 22 22 23 24 25 26 27 29 30 29 28 29 28 26 25 26 29 30 31 32 33 34 36 37 36 37 38 36 33 32 31 30 31
22 23 23 23 22 21 19 18 17 17 18 19 20 20 20 20 19 17 16 15 14 14 16 20 22 24 25 26 27 27 27 26 25 25 26 26 26 27 28 29 29 30 29 27 25 25 27 30 31 32 33 34 36 37 36 37 37 34 33 33 32 29 29
23 25 25 26 26 25 23 21 19 17 18 18 19 20 20 20 20 18 16 15 14 14 15 17 19 21 22 24 27 29 30 31 30 29 29 28 27 26 26 27 29 29 27 25 25 26 27 29 31 32 33 35 36 37 36 36 37 35 33 34 33 31 30
23 25 25 25 26 26 26 25 23 20 19 19 19 19 20 20 20 20 18 17 16 16 17 18 19 19 21 22 25 28 30 31 33 33 33 31 29 27 26 27 28 27 27 26 26 27 28 29 31 32 32 34 35 37 37 36 37 37 34 35 36 34 32
24 25 25 25 25 25 26 26 24 22 21 21 20 19 19 20 20 21 21 20 19 19 20 20 21 21 21 22 24 26 29 30 30 32 34 35 33 30 28 29 28 27 29 29 27 27 28 29 30 31 31 33 35 37 38 38 38 37 35 34 35 35 34
25 26 26 25 25 25 26 26 26 24 23 23 22 21 20 21 22 22 22 21 21 21 22 22 22 23 24 24 25 25 27 29 29 29 31 35 35 33 31 30 29 28 29 28 26 25 27 28 29 30 31 32 35 37 38 37 36 36 35 33 33 35 34
24 25 25 25 25 25 26 27 27 26 26 24 22 22 22 23 23 23 22 22 22 23 23 24 24 25 26 27 27 26 25 26 27 27 28 30 32 32 31 30 29 28 28 27 26 25 26 28 29 30 31 33 35 37 36 35 34 34 33 31 32 33 31
22 22 23 23 22 22 24 25 25 25 26 25 24 24 24 24 24 24 24 24 24 24 25 26 26 26 27 29 29 27 24 23 24 25 24 24 25 27 28 29 29 29 28 28 27 26 27 28 30 30 32 34 35 35 34 34 33 32 29 28 29 30 29
22 22 24 24 22 19 20 22 22 22 23 25 25 26 27 27 26 25 25 25 25 26 27 28 28 27 26 28 29 28 24 22 24 25 22 20 20 21 24 26 28 29 29 28 28 27 28 28 28 29 31 33 34 33 32 31 30 29 27 26 27 26 25
25 26 30 30 26 22 22 22 20 18 19 21 23 26 27 28 28 27 27 27 27 28 29 30 30 29 27 26 27 27 25 23 22 23 22 21 20 20 22 24 27 28 28 28 27 26 26 27 27 29 31 32 33 32 30 27 26 26 26 27 26 23 23
27 29 33 34 31 28 26 25 22 19 19 19 20 22 25 27 28 28 28 29 29 30 31 31 31 30 28 26 26 27 25 24 23 21 21 21 21 20 20 21 24 26 27 28 27 26 26 27 29 32 33 33 34 33 30 27 25 25 25 25 23 23 24
28 30 33 35 34 32 31 29 28 26 24 22 21 21 23 25 27 29 29 30 30 30 31 31 31 31 30 28 27 26 25 24 24 25 25 24 23 23 22 21 21 23 25 27 26 25 26 27 30 32 32 32 33 31 28 26 26 26 25 23 22 23 25
29 30 32 35 35 35 34 33 33 32 29 27 25 24 25 26 27 28 28 28 29 29 30 30 31 31 31 30 28 27 27 26 26 27 28 26 24 25 24 22 20 20 22 23 25 25 26 27 28 29 29 30 29 27 26 26 27 27 26 24 23 23 23
28 28 30 33 34 35 35 34 34 34 33 31 29 28 29 29 29 29 29 29 29 29 29 29 29 29 31 32 31 29 28 28 27 26 26 25 23 23 23 21 19 18 18 18 20 22 24 26 26 26 27 27 25 23 24 26 27 27 26 25 24 23 23
27 27 27 29 32 33 34 34 34 34 33 33 32 31 31 31 31 32 33 33 33 32 31 29 28 28 29 30 31 31 30 29 27 25 24 24 24 23 23 21 15 11 13 17 20 23 26 28 27 27 28 26 23 22 25 27 26 25 24 24 23 23 23
24 24 25 27 30 32 33 33 34 34 34 33 33 33 32 32 33 33 34 34 35 35 34 32 30 29 28 28 29 31 31 30 28 26 25 25 25 24 23 21 19 13 5 9 16 20 23 23 21 20 20 19 19 20 21 21 21 20 21 22 21 21 21
23 23 23 25 28 30 31 32 33 33 33 33 33 34 34 35 34 33 32 33 33 34 34 34 33 32 31 29 28 29 29 30 29 27 25 25 24 23 21 19 19 18 14 12 16 17 16 15 11 10 10 10 12 14 15 16 17 18 20 20 19 18 18
23 23 23 24 26 28 30 31 32 32 33 33 33 33 34 36 36 35 34 32 32 32 33 33 34 34 34 32 29 28 27 27 28 27 25 23 22 21 19 16 14 13 10 10 12 14 16 14 10 8 9 10 12 14 16 18 20 20 20 20 19 18 18